Volver al catálogo

GAOFEN 9

ActivoCienciaSSO
NORAD 40894·PAYLOAD·🇨🇳 China

Lanzado Sep 14, 2015 desde Jiuquan Satellite Launch Center

Loading…

Próximos Pases (próximas 24 horas)

TLE

ActualizadoSource: Space-Track

Época: Sep 14, 2026, 22:31 UTC

1 40894U 15047A   26257.93823091  .00000655  00000-0  86349-4 0  9999
2 40894  97.6221 289.5357 0026639 202.5316 157.4731 14.83020527593498

Sigue GAOFEN 9 en tiempo real con AllMySat

Download on the App Store